Location: Ferchesar
(52.6477°N, 12.4298°E)
Time: 12:05:39
(UTC+02:00)

Transit 4A - Pass Details

Date: 27 February 2021
Orbit: 869 x 975 km, 66.8° (Epoch: 15 April)

Event Time Altitude Azimuth Distance (km) Brightness Sun altitude
Rises 11:33:22 0° 203° (SSW) 3,660 11.8 28.3°
Reaches altitude 10° 11:35:57 10° 200° (SSW) 2,712 11.4 28.4°
Maximum altitude 11:42:12 62° 122° (ESE) 1,081 9.1 28.6°
Drops below altitude 10° 11:48:21 10° 43° (NE) 2,677 10.1 28.7°
Sets 11:50:54 0° 41° (NE) 3,610 10.6 28.8°
